Location: Broletto
(44.6000°N, 10.5833°E)
Time: 07:15:43
(UTC+00:00)

SPOT 5 - Pass Details

Date: 18 April 2021
Orbit: 623 x 814 km, 98.2° (Epoch: 06 May)

Event Time Altitude Azimuth Distance (km) Brightness Sun altitude
Exits shadow 19:40:17 16° 78° (ENE) 1,731 4.4 -15.9°
Maximum altitude 19:41:22 17° 60° (ENE) 1,678 4.5 -16.0°
Drops below altitude 10° 19:44:24 10° 20° (NNE) 2,157 5.5 -16.5°
Sets 19:47:23 0° 1° (N) 3,120 6.7 -16.9°
